Regional Weather Roundup
Issued by NWS Grand Forks, ND

Home | Current Version | Previous Version | Text Only | Print | Product List | Glossary On
Versions: 1 2 3 4 5 6 7 8 9 10 11 12 13 14 15 16 17 18 19 20 21 22 23 24 25 26 27 28 29 30 31 32 33 34 35 36 37 38 39 40 41 42 43 44 45 46 47 48 49 50
000
ASUS43 KFGF 251010
RWRFGF
PRAIRIE TO PINES  WEATHER ROUNDUP
NATIONAL WEATHER SERVICE EASTERN NORTH DAKOTA/GRAND FORKS ND
400 AM CST SUN JAN 25 2015

 **SATELLITE DATA USED TO AUGMENT SKY COVER AT AUTOMATED STATIONS**
 *****  WEATHER ACROSS EASTERN NORTH DAKOTA  *****

CITY           SKY/WX    TMP DP  RH WIND       PRES   REMARKS
GRAND FORKS    CLOUDY    18  12  77 N9        29.98R WCI   7
GRAND FRKS AFB CLOUDY    17  11  77 N9        29.99R WCI   6
GRAND FRKS NWS   N/A     18 N/A N/A N7          N/A  WCI   8
DEVILS LAKE    CLOUDY    16  10  79 NE8       29.94R WCI   5
FARGO          MOCLDY    22  16  78 N12       29.92R WCI  10
WAHPETON ARPT  CLOUDY    27  21  80 N13       29.90R WCI  16
$$

 ***** WEATHER ACROSS CENTRAL AND WESTERN NORTH DAKOTA  *****

CITY           SKY/WX    TMP DP  RH WIND       PRES   REMARKS
BISMARCK       CLOUDY    37  32  82 NW10      29.93R
MINOT          CLOUDY    27  24  89 N5        29.92R FOG     WCI  22
JAMESTOWN      CLOUDY    21  18  88 N7        29.92R WCI  12
MINOT AFB      FRZ DRZL  27  27 100 NW6       29.93R FOG     WCI  20
GARRISON         N/A     35  33  92 NW12      29.91R
WILLISTON      CLOUDY    36  30  79 NW16      30.00R
DICKINSON      MOCLDY    33  29  85 NW13      29.95R WCI  24
HETTINGER      CLOUDY    33  28  81 NW17      29.98S WCI  22
$$

 *****  OTHER AIRPORT OBSERVATIONS IN OUR AREA  *****

CITY           SKY/WX    TMP DP  RH WIND       PRES   REMARKS
WALHALLA         N/A     14  12  92 CALM      29.99F
GRAFTON AIRPOR NOT AVBL
VALLEY CITY AR NOT AVBL
CANDO          CLOUDY    16  12  86 NE8       29.97R WCI   5
CAVALIER APRT  CLOUDY    14  10  85 NW6       30.00F WCI   5
GWINNER        CLOUDY    25  25 100 N13       29.91R WCI  13
SHEYENNE NWR     N/A     21  17  85 N7        29.95S WCI  12
ROLLA          CLOUDY    14  12  92 N7        29.96R WCI   4
 ***** THE ABOVE OBSERVATIONS ARE NON NWS ARE NOT QUALITY
       CONTROLLED AND MAY MIS-REPORT RAIN FOR SNOW...
$$

  *****  WEATHER ACROSS NORTHERN MINNESOTA  *****

CITY           SKY/WX    TMP DP  RH WIND       PRES   REMARKS
FLAG ISLAND    CLOUDY     7   0  72 E6        30.00R WCI  -3
WARROAD        MOCLDY     9   3  78 NE12      29.99S WCI  -6
ROSEAU         PTCLDY    10   5  79 NE12      29.98S WCI  -4
HALLOCK        CLEAR     12   7  79 E6        30.00S WCI   3
THF RVR FALLS  PTCLDY    16   9  73 NE7       29.95R WCI   6
BAUDETTE       CLOUDY     9  -1  64 E8        29.97R WCI  -3
WASKISH        MOCLDY    10   3  72 NE9       29.95S WCI  -2
CROOKSTON      CLOUDY    18  10  73 NE7       29.97R WCI   8
$$
  *****  WEATHER ACROSS CENTRAL AND WEST MINNESOTA  *****

CITY           SKY/WX    TMP DP  RH WIND       PRES   REMARKS
FOSSTON        CLOUDY    14   9  79 NE8       29.92R WCI   3
BEMIDJI        CLOUDY    15   9  77 N5        29.90S WCI   7
PARK RAPIDS    CLOUDY    22  13  68 NE7       29.86S WCI  13
ELBOW LAKE     CLOUDY    30  27  87 N7        29.86R WCI  23
WADENA         CLOUDY    25  18  74 N9        29.86R WCI  15
DETROIT LAKES  CLOUDY    25  23  93 N5        29.88R WCI  19
MOORHEAD       MOCLDY    23  19  86 N9        29.93R WCI  13
FERGUS FALLS   CLOUDY    28  27  93 N3        29.90R
MORRIS MN      CLOUDY    32  28  86 N9        29.84R WCI  24
STAPLES        CLOUDY    27  23  86 NE7       29.86R WCI  19
$$
  *****  WEATHER ELSEWHERE ACROSS MINNESOTA  *****

CITY           SKY/WX    TMP DP  RH WIND       PRES   REMARKS
DULUTH         FLURRIES  18  12  77 E14       29.90R WCI   4
INTRNTL FALLS  CLOUDY     4  -4  69 E8        29.99R WCI  -9
ELY            PTCLDY    -2  -6  84 CALM      29.97R
CLOQUET        FLURRIES  19  12  73 E12G22    29.91R WCI   7
WHEATON        CLOUDY    27  25  93 NW10G16   29.90R WCI  17
BRAINERD       CLOUDY    24  18  77 NE9       29.88R WCI  14
HIBBING        CLOUDY    19   9  65 NE5       29.91R WCI  12
ALEXANDRIA     CLOUDY    30  26  85 N8        29.84R WCI  22
SAINT CLOUD    CLOUDY    27  21  78 NE7       29.85R WCI  19
MINNEAPOLIS    CLOUDY    30  23  75 N16       29.81R WCI  19
$$

  *****  WEATHER ACROSS SOUTH DAKOTA  *****

CITY           SKY/WX    TMP DP  RH WIND       PRES   REMARKS
SIOUX FALLS    LGT SNOW  33  31  92 N17       29.80R FOG     WCI  22
BROOKINGS      NOT AVBL
WATERTOWN      CLOUDY    31  29  92 N13       29.83R WCI  21
HURON          LGT SNOW  31  30  96 N13       29.89R FOG     WCI  21
SISSETON         N/A     27  26  96 N13       29.88R WCI  16
ABERDEEN       CLOUDY    29  26  89 N12       29.91R WCI  19
MITCHELL       CLOUDY    33  31  92 N15       29.88R WCI  23
PIERRE         CLOUDY    37  31  78 NW16      29.93R
MOBRIDGE       CLOUDY    38  33  82 NW15      29.89R
RAPID CITY     CLEAR     37  21  52 NW17      30.02S
$$

  *****  SOME WEATHER IN NEARBY STATES *****

CITY           SKY/WX    TMP DP  RH WIND       PRES   REMARKS
GLASGOW MT     PTCLDY    29  24  82 SW7       30.03F WCI  22
GREAT FALLS MT PTCLDY    43  36  76 SW16      30.01F
CHEYENNE WY    PTCLDY    36  25  64 NW18G25   30.12R
SCOTTSBLUFF NE CLEAR     37  27  67 NW25G32   30.09S
OMAHA NE       LGT RAIN  37  34  89 NW29G41   29.67R
DES MOINES IA  CLOUDY    41  37  86 NE14      29.56S
DAVENPORT IA   CLOUDY    34  31  88 E12       29.59S
CHICAGO IL     CLOUDY    33  30  88 NE9       29.67S FOG
EAU CLAIRE WI  CLOUDY    27  20  75 NE10      29.80R WCI  17
LA CROSSE WI   CLOUDY    33  28  81 E13G22    29.73R WCI  24
$$

  *****  SOME NATIONAL WEATHER *****

CITY           SKY/WX    TMP DP  RH WIND       PRES   REMARKS
LA GUARDIA NY  PTCLDY    35  25  66 W16G22    29.60R
RALEIGH NC     PTCLDY    31  25  78 W3        29.88R
ATLANTA GA     CLEAR     34  27  75 CALM      29.95S
NEW ORLEANS LA PTCLDY    44  40  85 SW7       30.06F
OKLAHOMA CITY  CLOUDY    52  34  50 NW13      29.90S
ALBUQUERQUE NM PTCLDY    27  19  72 E3        30.27R
SALT LAKE CITY CLOUDY    34  30  85 NW3       30.47R
LOS ANGELES CA CLEAR     60  32  34 CALM      30.03S
BOISE ID       CLEAR     29  27  92 E3        30.47F
SEATTLE WA     FOG       54  52  94 SW5       30.23R VSB 1/2
$$

*** WEATHER ACROSS MANITOBA...SASKATCHEWAN AND ONTARIO ***
                ***ONTARIO***

CITY           SKY/WX    TMP DP  RH WIND       PRES   REMARKS
GERALDTON      CLEAR    -17 -20  83 NW3       30.02R
THUNDER BAY    CLEAR    -11 -15  84 W3        30.08R
SIOUX LOOKOUT  PTCLDY   -20 -26  76 NE2       30.04R
TORONTO        CLEAR     14   9  79 N16G22    29.76R WCI  -2
BIG TROUT LK   CLEAR    -22 -27  76 NW2       30.10S
PICKLE LAKE    NOT AVBL
DRYDEN         CLOUDY    -8 -11  84 E5        30.01S WCI -19
KENORA         CLOUDY     1  -6  71 E8        30.00R WCI -12
$$
                *** MANITOBA***

CITY           SKY/WX    TMP DP  RH WIND       PRES   REMARKS
BRANDON        CLOUDY    10   7  85 NE6       30.01R WCI   1
DAUPHIN        CLOUDY    10   7  85 NW3       30.02S
ISLAND LAKE    CRYSTALS -18 -22  83 SE7       30.06F WCI -35
PILOT MOUND      N/A     12   9  85 NE5         N/A  WCI   4
THE PAS        FLURRIES   5   0  78 S8        29.97F WCI  -8
THOMPSON       NOT AVBL
WINNIPEG       CLOUDY    14   5  67 E6        30.03R WCI   5
LYNN LAKE      FLURRIES  -2  -4  92 S8        29.84F WCI -17
CHURCHILL      PTCLDY   -27 -33  75 SW6       30.08F WCI -44
GILLAM         PTCLDY   -26 -31  75 S3        30.07F
$$
                ***SASKATCHEWAN***

CITY           SKY/WX    TMP DP  RH WIND       PRES   REMARKS
ESTEVAN        CLOUDY    30  28  93 NW14      29.95R WCI  20
KINDERSLEY     MOCLDY    25  21  86 S7        29.89F WCI  17
LLOYDMINSTER   CLOUDY    34  27  75 SW13      29.79F WCI  25
PRINCE ALBERT  MOCLDY    18  16  93 SW2       29.87F
REGINA         LGT SNOW  21  21 100 NW5       29.98F FOG     WCI  15
YORKTON        MOCLDY     5   3  92 NW2       29.98F
N. BATTLEFORD  CLOUDY    28  27  93 SW6       29.89F WCI  22
LA RONGE       FLURRIES  16  14  93 SE3       29.81F
SASKATOON      MOCLDY    27  27 100 S7        29.91F WCI  19
SWIFT CURRENT  CLOUDY    28  25  86 S7        29.92F WCI  21
$$
NOTE: THESE ARE AUTOMATED STATIONS WITH LIMITED QUALITY CONTROL
      "FAIR" INDICATES FEW OR NO CLOUDS BELOW 12,000 FEET WITH NO
      SIGNIFICANT WEATHER AND/OR OBSTRUCTIONS TO VISIBILITY.
      SKY/WX - SKY CONDITION AND SIGNIFICANT WEATHER.
      TMP - AIR TEMPERATURE.    DP   - DEWPOINT TEMPERATURE.
      RH  - RELATIVE HUMIDITY.  PRES - PRESSURE.
      HX  - HEAT INDEX.         WCI  - WIND CHILL INDEX.
$



USA.gov is the U.S. government's official web portal to all federal, state and local government web resources and services.